STARLINK-3004, 48880

Orbit data source: Space-Track

STARLINK-3004, 48880 is a payload satellite owned by SpaceX/Seattle (US) in SSO that was launched on Wed, 30 Jun 2021 UTC via an FALCON 9 launch vehicle from the Air Force Eastern Test Range (AFETR). Payload-class satellites include a variety of spacecraft equipped with specific instruments for various scientific and technological missions. These include communications satellites like Starlink; space stations such as the ISS; scientific satellites like the Hubble; Earth observation satellites from companies like Planet Labs, Umbra, and HawkEye 360; GPS; miniature CubeSats for education and research; and military/defense satellites.

Loading next visibility...
Identifier
48880, 2021-059B
Orbit
SSO
Country
Flag of USUS
Related business
Manufacturer
SpaceX/Seattle
Mission
Operational Commercial Communications
Bus & Motor
STARLINK, Unknown motor
Mass
260 kg wet, ~248 kg dry
Launch date (UTC)
2021-06-30 (5 years ago)
Launch vehicle
FALCON 9
Launch site
Air Force Eastern Test Range (AFETR)
Object type
Payload
Rocket body
Debris
Shape & HBR
Box + 1 Pan, 10.1 m
Radar Cross Section
13.562 m², Large (>1 m²)

Expand to show TLE details & history
Last TLE update: 7 hours ago

TLE from 7 hours ago
0 STARLINK-3004
1 48880U 21059B   26094.88326005 -.00003499  00000-0 -26800-3 0  9994
2 48880  97.6585 221.1349 0002296  83.7631 276.3854 15.01256760262737
Epoch: 2026-04-04T21:11Z
TLE epoch observation values (Epoch: 2026-04-04T21:11:53.668Z)
Latitude
-0.00009°
Longitude
69.96465°
Altitude
565.9 km
Speed
7.578 km/s
True Right ascension
14h 44m 32s
True Declination
0° 00' 00"
Sunlit
Object was in full shadow at epoch
Visualization orbit readout
Latitude
Unknown
Longitude
Unknown
Altitude
Unknown
Speed
Unknown
Apparent Right ascension
Unknown
Apparent Declination
Unknown
Sunlit
N/A
Visualization observer readout
Local Sidereal Time
09:54:00
Azimuth
Unknown
Elevation
Unknown
Doppler factor
Unknown
Orbital elements
Apogee altitude
561.615 km
Perigee altitude
558.429 km
Semi-major axis
6,938.159 km
Eccentricity
0.00023
Inclination
97.6585°
RAAN
221.1349°
Arg. of periapsis
83.7631°
True anomaly
276.35925°
Mean anomaly
276.3854°
Eccentric anomaly
276.37233°
Mean motion
3.75558 °/min
Orbital period
95.86 mins
BSTAR
-0.000268
Loading maneuver chart data...
Computing Atmospheric mass density...
Loading historical data...
Loading historical data...
Loading historical data...
Loading historical data...
Loading historical data...
Loading historical data...
Loading historical data...

Documentation

Showing up to 5 results
|